Back to catalog

STARLINK-31050

AliveCommunicationsVLEO
NORAD 58546·PAYLOAD·🇺🇸 United States

Launched Dec 8, 2023 from Vandenberg Space Force Base

Loading…

Next Passes (next 24 hours)

TLE

FreshSource: CelesTrak SupGP

Epoch: Sep 14, 2026, 22:06 UTC

1 58546C 23192R   26257.92131944  .00048757  00000+0  14409-2 0  2577
2 58546  53.1583 259.9522 0001281  90.3063 193.9016 15.34357696    11

Track STARLINK-31050 in real time with AllMySat

Download on the App Store